User: anonymous   Login
Location: Great Falls
(47.5000°N, 111.3000°W)
Time: 06:58:30
(UTC-07:00)
Language:

ISS - Orbit

View from above orbital plane
View from above orbital plane
View from above satellite
View from above satellite

Ground track
Ground track

The orbit data is extracted from the following two-line orbital elements,

1 25544U 98067A   19022.11781903  .00016717  00000-0  10270-3 0  9045
2 25544  51.6395   7.7208 0004597 292.1673  67.8991 15.53150701 32553
Epoch (UTC): 22 January 2019 02:49:39
Eccentricity: 0.0004597
inclination: 51.6395°
perigee height: 404 km
apogee height: 410 km
right ascension of ascending node: 7.7208°
argument of perigee: 292.1673°
revolutions per day: 15.53150701
mean anomaly at epoch: 67.8991°
orbit number at epoch: 3255

The dashed part of the orbit path shows where the satellite is in the earth's shadow,  

DLR